Location: München
(48.1351°N, 11.5820°E)
Time: 05:13:22
(UTC+02:00)

ISS - Pass Details

Date: 22 May 2021
Orbit: 417 x 422 km, 51.6° (Epoch: 13 June)

Event Time Altitude Azimuth Distance (km) Brightness Sun altitude
Rises 22:56:54 0° 286° (WNW) 2,366 0.8 -15.1°
Reaches altitude 10° 22:59:03 10° 292° (WNW) 1,502 -0.1 -15.3°
Maximum altitude 23:02:20 47° 8° (N) 563 -2.8 -15.6°
Enters shadow 23:05:17 12° 83° (E) 1,374 -1.4 -15.8°
